Tracking 18795 objects as of 21-August-2017
HD Live streaming from Space Station
objects crossing your sky now

INTELSAT 501

Track INTELSAT 501 now!
INTELSAT 501 is classified as:


NORAD ID: 12474
Int'l Code: 1981-050A
Perigee: 36,163.9 km
Apogee: 36,227.1 km
Inclination: 15.0 °
Period: 1,456.7 minutes
Semi major axis: 42566 km
RCS: 3.981 m2 (large)
Launch date: May 23, 1981
Source: International Telecommunications Satellite Organization (ITSO)
Launch site: AIR FORCE EASTERN TEST RANGE (AFETR)
Your satellite tracking list
Your tracking list is empty





NASA's NSSDC Master Catalog

Two Line Element Set (TLE):
1 12474U 81050A   17233.10209314 -.00000267  00000-0  00000+0 0  9993
2 12474  15.0317 351.6944 0007424 206.6455 145.2367  0.98855482105894
Source of the keplerian elements: AFSPC